Location: Abundant Grace Fellowship
(35.0349°N, 90.0924°W)
Time: 17:42:40
(UTC+00:00)

CENTAUR R/B - Visible Passes

Search period start: 11 April 2026 00:00
Search period end: 21 April 2026 00:00
Orbit: 625 x 1555 km, 63.4° (Epoch: 11 April)

Date Brightness Start Highest point End Pass type
(mag) Time Alt. Az. Time Alt. Az. Time Alt. Az.
11 Apr 3.5 01:20:30 10° NNW 01:29:22 86° WSW 01:38:56 10° SSE visible
11 Apr 5.3 03:13:27 10° WNW 03:19:20 19° WSW 03:25:21 10° SW visible
12 Apr 4.8 02:22:28 10° NW 02:30:11 33° WSW 02:38:17 10° SSW visible
13 Apr 4.2 01:32:18 10° NW 01:40:53 53° WSW 01:50:01 10° S visible
14 Apr 3.6 00:42:34 10° NNW 00:51:25 82° WSW 01:00:59 10° SSE visible
14 Apr 5.5 02:35:49 10° WNW 02:41:18 18° WSW 02:46:58 10° SW visible
15 Apr 5.0 01:44:38 10° NW 01:52:12 31° WSW 02:00:05 10° SSW visible
16 Apr 4.4 00:54:24 10° NW 01:02:55 50° WSW 01:11:57 10° S visible
17 Apr 5.7 01:58:12 10° WNW 02:03:17 16° WSW 02:08:30 10° SW visible
18 Apr 5.3 01:06:50 10° NW 01:14:12 29° WSW 01:21:54 10° SSW visible
20 Apr 5.8 01:20:39 10° WNW 01:25:16 15° WSW 01:29:59 10° SW visible
